Time,TemperatureF,DewpointF,PressureIn,WindDirection,WindDirectionDegrees,WindSpeedMPH,WindSpeedGustMPH,Humidity,HourlyPrecipIn,Conditions,Clouds,dailyrainin,SolarRadiationWatts/m^2,SoftwareType,DateUTC
2013-02-11 00:05:00,44.7,39.9,30.11,WSW,252,4.0,4.0,83,0.00,,,0.00,0,Wunderground v.1.15,2013-02-11 08:05:00,
2013-02-11 00:15:00,44.8,39.3,30.11,WSW,253,3.0,5.0,81,0.00,,,0.00,0,Wunderground v.1.15,2013-02-11 08:15:00,
2013-02-11 00:20:00,44.8,39.3,30.11,WSW,257,4.0,4.0,81,0.00,,,0.00,0,Wunderground v.1.15,2013-02-11 08:20:00,
2013-02-11 00:30:00,44.5,38.7,30.11,West,259,3.0,5.0,80,0.00,,,0.00,0,Wunderground v.1.15,2013-02-11 08:30:00,
2013-02-11 00:40:00,44.2,38.4,30.11,North,358,5.0,5.0,80,0.00,,,0.00,0,Wunderground v.1.15,2013-02-11 08:40:00,
2013-02-11 00:45:00,44.1,38.3,30.12,North,9,5.0,6.0,80,0.00,,,0.00,0,Wunderground v.1.15,2013-02-11 08:45:00,
2013-02-11 00:50:00,44.1,38.3,30.11,NNE,16,5.0,5.0,80,0.00,,,0.00,0,Wunderground v.1.15,2013-02-11 08:50:00,
2013-02-11 01:00:00,44.3,38.8,30.11,NNE,18,6.0,6.0,81,0.00,,,0.00,0,Wunderground v.1.15,2013-02-11 09:00:00,
2013-02-11 01:05:00,44.4,39.2,30.11,NNE,20,5.0,6.0,82,0.00,,,0.00,0,Wunderground v.1.15,2013-02-11 09:05:00,
2013-02-11 01:15:00,44.5,39.3,30.12,NNE,26,4.0,5.0,82,0.00,,,0.00,0,Wunderground v.1.15,2013-02-11 09:15:00,
2013-02-11 01:20:00,44.5,39.7,30.12,NNE,26,4.0,6.0,83,0.00,,,0.00,0,Wunderground v.1.15,2013-02-11 09:20:00,
2013-02-11 01:25:00,44.6,39.8,30.12,NNE,29,4.0,6.0,83,0.00,,,0.00,0,Wunderground v.1.15,2013-02-11 09:25:00,
2013-02-11 01:30:00,44.6,39.8,30.12,NNE,28,4.0,4.0,83,0.00,,,0.00,0,Wunderground v.1.15,2013-02-11 09:30:00,
2013-02-11 01:40:00,44.4,39.6,30.12,NNE,26,3.0,3.0,83,0.00,,,0.00,0,Wunderground v.1.15,2013-02-11 09:40:00,
2013-02-11 01:45:00,44.3,39.5,30.12,NNE,29,3.0,3.0,83,0.00,,,0.00,0,Wunderground v.1.15,2013-02-11 09:45:00,
2013-02-11 01:50:00,44.2,39.4,30.12,NNE,28,3.0,4.0,83,0.00,,,0.00,0,Wunderground v.1.15,2013-02-11 09:50:00,
2013-02-11 02:00:00,44.1,39.6,30.12,NNE,24,4.0,4.0,84,0.00,,,0.00,0,Wunderground v.1.15,2013-02-11 10:00:00,
2013-02-11 02:10:00,43.9,39.4,30.12,NNE,22,3.0,3.0,84,0.00,,,0.00,0,Wunderground v.1.15,2013-02-11 10:10:00,
2013-02-11 02:15:00,43.8,39.3,30.13,NNE,24,3.0,3.0,84,0.00,,,0.00,0,Wunderground v.1.15,2013-02-11 10:15:00,
2013-02-11 02:25:00,43.7,39.5,30.13,NNE,22,4.0,5.0,85,0.00,,,0.00,0,Wunderground v.1.15,2013-02-11 10:25:00,
2013-02-11 02:30:00,43.8,39.6,30.13,NNE,24,5.0,5.0,85,0.00,,,0.00,0,Wunderground v.1.15,2013-02-11 10:30:00,
2013-02-11 02:40:00,44.0,40.1,30.13,NNE,24,5.0,5.0,86,0.00,,,0.00,0,Wunderground v.1.15,2013-02-11 10:40:00,
2013-02-11 02:50:00,44.0,40.1,30.13,NNE,22,4.0,4.0,86,0.00,,,0.00,0,Wunderground v.1.15,2013-02-11 10:50:00,
2013-02-11 03:00:00,43.6,39.7,30.13,NNE,23,3.0,3.0,86,0.00,,,0.00,0,Wunderground v.1.15,2013-02-11 11:00:00,
2013-02-11 03:10:00,43.3,39.4,30.13,NNE,24,1.0,4.0,86,0.00,,,0.00,0,Wunderground v.1.15,2013-02-11 11:10:00,
2013-02-11 03:20:00,43.2,39.3,30.13,NNE,22,4.0,4.0,86,0.00,,,0.00,0,Wunderground v.1.15,2013-02-11 11:20:00,
2013-02-11 03:30:00,42.8,39.2,30.13,NNE,24,3.0,3.0,87,0.00,,,0.00,0,Wunderground v.1.15,2013-02-11 11:30:00,
2013-02-11 03:35:00,42.6,39.0,30.13,NNE,21,3.0,3.0,87,0.00,,,0.00,0,Wunderground v.1.15,2013-02-11 11:35:00,
2013-02-11 03:40:00,42.4,38.8,30.13,NNE,21,3.0,3.0,87,0.00,,,0.00,0,Wunderground v.1.15,2013-02-11 11:40:00,
2013-02-11 03:50:00,41.9,38.3,30.13,NNE,22,1.0,4.0,87,0.00,,,0.00,0,Wunderground v.1.15,2013-02-11 11:50:00,
2013-02-11 04:00:00,41.5,37.9,30.13,NNE,21,4.0,4.0,87,0.00,,,0.00,0,Wunderground v.1.15,2013-02-11 12:00:00,
2013-02-11 04:10:00,41.3,38.0,30.13,NNE,23,3.0,3.0,88,0.00,,,0.00,0,Wunderground v.1.15,2013-02-11 12:10:00,
2013-02-11 04:15:00,41.2,37.6,30.13,NNE,22,3.0,4.0,87,0.00,,,0.00,0,Wunderground v.1.15,2013-02-11 12:15:00,
2013-02-11 04:25:00,41.2,37.9,30.13,NNE,22,4.0,4.0,88,0.00,,,0.00,0,Wunderground v.1.15,2013-02-11 12:25:00,
2013-02-11 04:35:00,41.2,37.6,30.14,NNE,23,2.0,3.0,87,0.00,,,0.00,0,Wunderground v.1.15,2013-02-11 12:35:00,
2013-02-11 04:45:00,41.2,37.6,30.15,NNE,32,2.0,5.0,87,0.00,,,0.00,0,Wunderground v.1.15,2013-02-11 12:45:00,
2013-02-11 04:55:00,41.6,38.0,30.15,NNE,24,4.0,4.0,87,0.00,,,0.00,0,Wunderground v.1.15,2013-02-11 12:55:00,
2013-02-11 05:00:00,41.6,38.0,30.15,NNE,14,4.0,4.0,87,0.00,,,0.00,0,Wunderground v.1.15,2013-02-11 13:00:00,
2013-02-11 05:10:00,41.5,37.9,30.15,NNE,14,3.0,3.0,87,0.00,,,0.00,0,Wunderground v.1.15,2013-02-11 13:10:00,
2013-02-11 05:15:00,41.4,37.8,30.15,NNE,12,3.0,3.0,87,0.00,,,0.00,0,Wunderground v.1.15,2013-02-11 13:15:00,
2013-02-11 05:25:00,41.4,37.8,30.16,NNE,13,2.0,2.0,87,0.00,,,0.00,0,Wunderground v.1.15,2013-02-11 13:25:00,
2013-02-11 05:30:00,41.5,37.9,30.16,NNE,13,1.0,1.0,87,0.00,,,0.00,0,Wunderground v.1.15,2013-02-11 13:30:00,
2013-02-11 05:40:00,41.9,38.6,30.16,NNE,12,3.0,3.0,88,0.00,,,0.00,0,Wunderground v.1.15,2013-02-11 13:40:00,
2013-02-11 05:50:00,42.2,38.9,30.16,North,6,4.0,4.0,88,0.00,,,0.00,0,Wunderground v.1.15,2013-02-11 13:50:00,
2013-02-11 06:00:00,42.4,38.8,30.16,North,8,4.0,4.0,87,0.00,,,0.00,0,Wunderground v.1.15,2013-02-11 14:00:00,
2013-02-11 06:10:00,42.1,38.5,30.17,North,9,1.0,5.0,87,0.00,,,0.00,0,Wunderground v.1.15,2013-02-11 14:10:00,
2013-02-11 06:20:00,41.9,38.3,30.17,NNE,12,2.0,2.0,87,0.00,,,0.00,0,Wunderground v.1.15,2013-02-11 14:20:00,
2013-02-11 06:30:00,41.6,38.0,30.17,NNE,12,2.0,5.0,87,0.00,,,0.00,0,Wunderground v.1.15,2013-02-11 14:30:00,
2013-02-11 06:35:00,41.4,37.8,30.17,NNE,18,4.0,5.0,87,0.00,,,0.00,0,Wunderground v.1.15,2013-02-11 14:35:00,
2013-02-11 06:45:00,41.4,37.5,30.18,NNE,18,4.0,5.0,86,0.00,,,0.00,0,Wunderground v.1.15,2013-02-11 14:45:00,
2013-02-11 06:50:00,41.5,37.3,30.18,NNE,18,4.0,4.0,85,0.00,,,0.00,0,Wunderground v.1.15,2013-02-11 14:50:00,
2013-02-11 07:00:00,41.5,37.0,30.18,NNE,18,2.0,2.0,84,0.00,,,0.00,0,Wunderground v.1.15,2013-02-11 15:00:00,
2013-02-11 07:10:00,41.4,36.3,30.18,SSW,213,0.0,0.0,82,0.00,,,0.00,7,Wunderground v.1.15,2013-02-11 15:10:00,
2013-02-11 07:15:00,41.7,36.3,30.18,NNE,22,0.0,2.0,81,0.00,,,0.00,11,Wunderground v.1.15,2013-02-11 15:15:00,
2013-02-11 07:25:00,42.8,37.4,30.18,NNE,21,2.0,2.0,81,0.00,,,0.00,18,Wunderground v.1.15,2013-02-11 15:25:00,
2013-02-11 07:30:00,43.8,37.4,30.18,NNE,22,1.0,2.0,78,0.00,,,0.00,19,Wunderground v.1.15,2013-02-11 15:30:00,
2013-02-11 07:40:00,46.0,38.5,30.19,NNW,340,3.0,4.0,75,0.00,,,0.00,33,Wunderground v.1.15,2013-02-11 15:40:00,
2013-02-11 07:50:00,47.6,38.3,30.20,NNW,347,5.0,5.0,70,0.00,,,0.00,56,Wunderground v.1.15,2013-02-11 15:50:00,
2013-02-11 07:55:00,48.2,37.4,30.20,North,357,6.0,7.0,66,0.00,,,0.00,72,Wunderground v.1.15,2013-02-11 15:55:00,
2013-02-11 08:05:00,49.9,36.1,30.20,NNE,30,6.0,7.0,59,0.00,,,0.00,105,Wunderground v.1.15,2013-02-11 16:05:00,
2013-02-11 08:10:00,51.2,35.6,30.21,NNE,24,5.0,5.0,55,0.00,,,0.00,125,Wunderground v.1.15,2013-02-11 16:10:00,
2013-02-11 08:20:00,53.4,34.7,30.21,NNE,19,6.0,6.0,49,0.00,,,0.00,165,Wunderground v.1.15,2013-02-11 16:20:00,
2013-02-11 08:25:00,54.2,35.4,30.22,SSW,213,5.0,6.0,49,0.00,,,0.00,183,Wunderground v.1.15,2013-02-11 16:25:00,
2013-02-11 08:35:00,55.4,37.6,30.22,NNE,16,5.0,5.0,51,0.00,,,0.00,214,Wunderground v.1.15,2013-02-11 16:35:00,
2013-02-11 08:45:00,56.2,37.3,30.22,NNE,16,5.0,5.0,49,0.00,,,0.00,246,Wunderground v.1.15,2013-02-11 16:45:00,
2013-02-11 08:50:00,57.0,38.5,30.22,NNE,16,5.0,9.0,50,0.00,,,0.00,262,Wunderground v.1.15,2013-02-11 16:50:00,
2013-02-11 09:00:00,57.7,37.6,30.22,SSW,213,6.0,6.0,47,0.00,,,0.00,290,Wunderground v.1.15,2013-02-11 17:00:00,
2013-02-11 09:15:00,59.0,35.9,30.22,NNE,22,5.0,6.0,42,0.00,,,0.00,336,Wunderground v.1.15,2013-02-11 17:15:00,
2013-02-11 09:25:00,59.9,34.9,30.22,NNE,26,6.0,6.0,39,0.00,,,0.00,367,Wunderground v.1.15,2013-02-11 17:25:00,
2013-02-11 09:30:00,60.2,34.5,30.22,NNE,26,6.0,6.0,38,0.00,,,0.00,381,Wunderground v.1.15,2013-02-11 17:30:00,
2013-02-11 09:35:00,60.6,34.8,30.22,NE,35,5.0,7.0,38,0.00,,,0.00,394,Wunderground v.1.15,2013-02-11 17:35:00,
2013-02-11 09:45:00,61.7,33.7,30.22,ENE,58,5.0,5.0,35,0.00,,,0.00,422,Wunderground v.1.15,2013-02-11 17:45:00,
2013-02-11 09:50:00,62.0,33.3,30.22,NE,39,5.0,9.0,34,0.00,,,0.00,436,Wunderground v.1.15,2013-02-11 17:50:00,
2013-02-11 10:00:00,62.2,34.2,30.22,NE,38,6.0,7.0,35,0.00,,,0.00,462,Wunderground v.1.15,2013-02-11 18:00:00,
2013-02-11 10:05:00,62.6,32.3,30.22,SSW,213,6.0,10.0,32,0.00,,,0.00,475,Wunderground v.1.15,2013-02-11 18:05:00,
2013-02-11 10:15:00,62.3,28.7,30.22,NE,39,10.0,13.0,28,0.00,,,0.00,497,Wunderground v.1.15,2013-02-11 18:15:00,
2013-02-11 10:20:00,62.2,29.5,30.22,NNE,30,10.0,10.0,29,0.00,,,0.00,510,Wunderground v.1.15,2013-02-11 18:20:00,
2013-02-11 10:25:00,62.1,28.6,30.23,NE,36,11.0,11.0,28,0.00,,,0.00,520,Wunderground v.1.15,2013-02-11 18:25:00,
2013-02-11 10:35:00,62.7,29.1,30.23,ENE,76,7.0,10.0,28,0.00,,,0.00,543,Wunderground v.1.15,2013-02-11 18:35:00,
2013-02-11 10:40:00,63.2,28.6,30.23,NE,45,7.0,11.0,27,0.00,,,0.00,552,Wunderground v.1.15,2013-02-11 18:40:00,
2013-02-11 10:50:00,63.8,29.1,30.23,NE,46,8.0,8.0,27,0.00,,,0.00,570,Wunderground v.1.15,2013-02-11 18:50:00,
2013-02-11 11:00:00,64.2,29.5,30.23,NNE,20,8.0,8.0,27,0.00,,,0.00,587,Wunderground v.1.15,2013-02-11 19:00:00,
2013-02-11 11:10:00,64.1,29.4,30.23,NE,51,9.0,9.0,27,0.00,,,0.00,605,Wunderground v.1.15,2013-02-11 19:10:00,
2013-02-11 11:15:00,64.3,29.6,30.22,NE,36,8.0,9.0,27,0.00,,,0.00,612,Wunderground v.1.15,2013-02-11 19:15:00,
2013-02-11 11:25:00,64.9,30.1,30.22,NE,38,7.0,9.0,27,0.00,,,0.00,624,Wunderground v.1.15,2013-02-11 19:25:00,
2013-02-11 11:30:00,65.0,30.2,30.21,ENE,63,7.0,7.0,27,0.00,,,0.00,629,Wunderground v.1.15,2013-02-11 19:30:00,
2013-02-11 11:40:00,65.6,29.8,30.21,NE,40,7.0,11.0,26,0.00,,,0.00,643,Wunderground v.1.15,2013-02-11 19:40:00,
2013-02-11 11:50:00,65.7,30.8,30.21,NNE,28,8.0,8.0,27,0.00,,,0.00,650,Wunderground v.1.15,2013-02-11 19:50:00,
2013-02-11 11:55:00,65.9,29.1,30.21,NNE,18,8.0,12.0,25,0.00,,,0.00,656,Wunderground v.1.15,2013-02-11 19:55:00,
2013-02-11 12:05:00,65.8,29.0,30.20,NE,44,8.0,11.0,25,0.00,,,0.00,663,Wunderground v.1.15,2013-02-11 20:05:00,
2013-02-11 12:10:00,65.8,29.0,30.20,NE,41,9.0,9.0,25,0.00,,,0.00,666,Wunderground v.1.15,2013-02-11 20:10:00,
2013-02-11 12:20:00,66.5,29.6,30.19,NNE,25,7.0,7.0,25,0.00,,,0.00,673,Wunderground v.1.15,2013-02-11 20:20:00,
2013-02-11 12:25:00,66.8,29.8,30.19,ENE,58,7.0,7.0,25,0.00,,,0.00,671,Wunderground v.1.15,2013-02-11 20:25:00,
2013-02-11 12:35:00,67.0,30.0,30.19,NE,45,8.0,13.0,25,0.00,,,0.00,677,Wunderground v.1.15,2013-02-11 20:35:00,
2013-02-11 12:45:00,67.5,30.4,30.18,East,80,7.0,13.0,25,0.00,,,0.00,677,Wunderground v.1.15,2013-02-11 20:45:00,
2013-02-11 12:50:00,67.1,30.1,30.18,NE,42,9.0,9.0,25,0.00,,,0.00,677,Wunderground v.1.15,2013-02-11 20:50:00,
2013-02-11 13:00:00,67.6,31.5,30.18,ENE,66,8.0,8.0,26,0.00,,,0.00,671,Wunderground v.1.15,2013-02-11 21:00:00,
2013-02-11 13:05:00,67.8,31.6,30.18,SSW,213,7.0,8.0,26,0.00,,,0.00,671,Wunderground v.1.15,2013-02-11 21:05:00,
2013-02-11 13:15:00,67.4,30.3,30.17,NNE,22,6.0,7.0,25,0.00,,,0.00,666,Wunderground v.1.15,2013-02-11 21:15:00,
2013-02-11 13:20:00,67.8,30.7,30.17,East,101,5.0,5.0,25,0.00,,,0.00,663,Wunderground v.1.15,2013-02-11 21:20:00,
2013-02-11 13:25:00,67.8,31.6,30.17,ENE,77,4.0,5.0,26,0.00,,,0.00,659,Wunderground v.1.15,2013-02-11 21:25:00,
2013-02-11 13:35:00,68.7,31.4,30.17,NNE,15,4.0,5.0,25,0.00,,,0.00,650,Wunderground v.1.15,2013-02-11 21:35:00,
2013-02-11 13:45:00,65.2,29.4,30.17,SSW,213,3.0,6.0,26,0.00,,,0.00,642,Wunderground v.1.15,2013-02-11 21:45:00,
2013-02-11 13:50:00,64.3,35.3,30.17,SSW,193,2.0,2.0,34,0.00,,,0.00,636,Wunderground v.1.15,2013-02-11 21:50:00,
2013-02-11 13:55:00,63.6,33.9,30.17,SSW,213,2.0,2.0,33,0.00,,,0.00,629,Wunderground v.1.15,2013-02-11 21:55:00,
2013-02-11 14:05:00,61.2,34.7,30.16,West,262,6.0,7.0,37,0.00,,,0.00,617,Wunderground v.1.15,2013-02-11 22:05:00,
2013-02-11 14:10:00,60.7,33.6,30.16,SSW,213,6.0,6.0,36,0.00,,,0.00,608,Wunderground v.1.15,2013-02-11 22:10:00,
2013-02-11 14:20:00,61.5,37.6,30.16,SW,235,5.0,6.0,41,0.00,,,0.00,592,Wunderground v.1.15,2013-02-11 22:20:00,
2013-02-11 14:25:00,59.8,42.1,30.16,WSW,252,6.0,6.0,52,0.00,,,0.00,584,Wunderground v.1.15,2013-02-11 22:25:00,
2013-02-11 14:35:00,59.1,38.9,30.16,SSW,213,9.0,9.0,47,0.00,,,0.00,566,Wunderground v.1.15,2013-02-11 22:35:00,
2013-02-11 14:40:00,59.7,39.4,30.16,WSW,257,8.0,8.0,47,0.00,,,0.00,554,Wunderground v.1.15,2013-02-11 22:40:00,
2013-02-11 14:50:00,60.8,39.3,30.16,WSW,248,7.0,7.0,45,0.00,,,0.00,533,Wunderground v.1.15,2013-02-11 22:50:00,
2013-02-11 14:55:00,60.5,40.2,30.16,WSW,254,7.0,7.0,47,0.00,,,0.00,522,Wunderground v.1.15,2013-02-11 22:55:00,
2013-02-11 15:05:00,59.8,41.6,30.17,WSW,257,7.0,11.0,51,0.00,,,0.00,497,Wunderground v.1.15,2013-02-11 23:05:00,
2013-02-11 15:15:00,58.4,43.2,30.17,WSW,241,9.0,10.0,57,0.00,,,0.00,475,Wunderground v.1.15,2013-02-11 23:15:00,
2013-02-11 15:25:00,58.0,44.2,30.17,WSW,245,8.0,10.0,60,0.00,,,0.00,448,Wunderground v.1.15,2013-02-11 23:25:00,
2013-02-11 15:30:00,58.0,44.6,30.17,West,262,9.0,10.0,61,0.00,,,0.00,434,Wunderground v.1.15,2013-02-11 23:30:00,
2013-02-11 15:40:00,57.5,45.8,30.17,SSW,213,9.0,9.0,65,0.00,,,0.00,406,Wunderground v.1.15,2013-02-11 23:40:00,
2013-02-11 15:45:00,57.3,45.2,30.17,WSW,238,8.0,11.0,64,0.00,,,0.00,392,Wunderground v.1.15,2013-02-11 23:45:00,
2013-02-11 15:55:00,57.9,45.4,30.16,West,260,8.0,10.0,63,0.00,,,0.00,364,Wunderground v.1.15,2013-02-11 23:55:00,
2013-02-11 16:05:00,58.2,46.1,30.16,SSW,213,6.0,7.0,64,0.00,,,0.00,332,Wunderground v.1.15,2013-02-12 00:05:00,
2013-02-11 16:10:00,58.6,46.5,30.17,West,262,5.0,6.0,64,0.00,,,0.00,316,Wunderground v.1.15,2013-02-12 00:10:00,
2013-02-11 16:20:00,59.1,44.8,30.17,West,262,4.0,5.0,59,0.00,,,0.00,283,Wunderground v.1.15,2013-02-12 00:20:00,
2013-02-11 16:30:00,59.2,44.0,30.17,West,270,5.0,5.0,57,0.00,,,0.00,250,Wunderground v.1.15,2013-02-12 00:30:00,
2013-02-11 16:35:00,59.1,46.1,30.17,SW,222,4.0,5.0,62,0.00,,,0.00,229,Wunderground v.1.15,2013-02-12 00:35:00,
2013-02-11 16:45:00,57.0,47.7,30.18,WSW,241,4.0,4.0,71,0.00,,,0.00,186,Wunderground v.1.15,2013-02-12 00:45:00,
2013-02-11 16:50:00,56.6,47.7,30.18,WSW,241,4.0,4.0,72,0.00,,,0.00,165,Wunderground v.1.15,2013-02-12 00:50:00,
2013-02-11 17:00:00,56.1,47.9,30.18,WSW,250,4.0,5.0,74,0.00,,,0.00,127,Wunderground v.1.15,2013-02-12 01:00:00,
2013-02-11 17:10:00,55.3,48.2,30.18,WSW,243,4.0,6.0,77,0.00,,,0.00,88,Wunderground v.1.15,2013-02-12 01:10:00,
2013-02-11 17:20:00,54.7,48.3,30.18,WSW,237,4.0,4.0,79,0.00,,,0.00,53,Wunderground v.1.15,2013-02-12 01:20:00,
2013-02-11 17:25:00,54.4,48.4,30.18,WSW,251,3.0,4.0,80,0.00,,,0.00,39,Wunderground v.1.15,2013-02-12 01:25:00,
2013-02-11 17:35:00,53.8,48.8,30.18,SW,235,3.0,3.0,83,0.00,,,0.00,18,Wunderground v.1.15,2013-02-12 01:35:00,
2013-02-11 17:45:00,53.2,48.5,30.19,WSW,237,3.0,3.0,84,0.00,,,0.00,5,Wunderground v.1.15,2013-02-12 01:45:00,
2013-02-11 17:50:00,53.2,48.5,30.19,WSW,245,3.0,4.0,84,0.00,,,0.00,0,Wunderground v.1.15,2013-02-12 01:50:00,
2013-02-11 17:55:00,53.0,48.6,30.19,WSW,241,3.0,4.0,85,0.00,,,0.00,0,Wunderground v.1.15,2013-02-12 01:55:00,
2013-02-11 18:05:00,52.8,48.7,30.19,SW,235,3.0,3.0,86,0.00,,,0.00,0,Wunderground v.1.15,2013-02-12 02:05:00,
2013-02-11 18:10:00,52.7,48.9,30.19,SW,235,3.0,3.0,87,0.00,,,0.00,0,Wunderground v.1.15,2013-02-12 02:10:00,
2013-02-11 18:20:00,52.4,48.6,30.20,SW,232,4.0,4.0,87,0.00,,,0.00,0,Wunderground v.1.15,2013-02-12 02:20:00,
2013-02-11 18:30:00,52.2,48.8,30.21,SW,232,2.0,3.0,88,0.00,,,0.00,0,Wunderground v.1.15,2013-02-12 02:30:00,
2013-02-11 18:35:00,52.2,48.8,30.21,SW,232,2.0,4.0,88,0.00,,,0.00,0,Wunderground v.1.15,2013-02-12 02:35:00,
2013-02-11 18:45:00,52.1,48.7,30.21,SW,230,3.0,3.0,88,0.00,,,0.00,0,Wunderground v.1.15,2013-02-12 02:45:00,
2013-02-11 18:55:00,52.2,48.8,30.21,SW,231,2.0,3.0,88,0.00,,,0.00,0,Wunderground v.1.15,2013-02-12 02:55:00,
2013-02-11 19:00:00,52.4,48.9,30.21,SW,230,2.0,2.0,88,0.00,,,0.00,0,Wunderground v.1.15,2013-02-12 03:00:00,
2013-02-11 19:05:00,52.1,48.7,30.22,SW,231,2.0,2.0,88,0.00,,,0.00,0,Wunderground v.1.15,2013-02-12 03:05:00,
2013-02-11 19:15:00,51.6,48.2,30.22,SW,232,2.0,3.0,88,0.00,,,0.00,0,Wunderground v.1.15,2013-02-12 03:15:00,
2013-02-11 19:20:00,51.5,48.1,30.22,SW,232,3.0,3.0,88,0.00,,,0.00,0,Wunderground v.1.15,2013-02-12 03:20:00,
2013-02-11 19:30:00,51.3,48.2,30.22,SW,232,3.0,3.0,89,0.00,,,0.00,0,Wunderground v.1.15,2013-02-12 03:30:00,
2013-02-11 19:40:00,51.5,48.7,30.22,SW,222,3.0,3.0,90,0.00,,,0.00,0,Wunderground v.1.15,2013-02-12 03:40:00,
2013-02-11 19:45:00,51.4,48.6,30.22,SW,222,2.0,3.0,90,0.00,,,0.00,0,Wunderground v.1.15,2013-02-12 03:45:00,
2013-02-11 19:50:00,51.4,48.6,30.22,SW,224,1.0,2.0,90,0.00,,,0.00,0,Wunderground v.1.15,2013-02-12 03:50:00,
2013-02-11 20:00:00,51.3,48.5,30.22,SW,224,3.0,4.0,90,0.00,,,0.00,0,Wunderground v.1.15,2013-02-12 04:00:00,
2013-02-11 20:05:00,51.4,48.6,30.22,SW,223,4.0,4.0,90,0.00,,,0.00,0,Wunderground v.1.15,2013-02-12 04:05:00,
2013-02-11 20:15:00,50.9,48.1,30.23,SW,224,2.0,3.0,90,0.00,,,0.00,0,Wunderground v.1.15,2013-02-12 04:15:00,
2013-02-11 20:20:00,50.8,48.0,30.23,SW,222,1.0,1.0,90,0.00,,,0.00,0,Wunderground v.1.15,2013-02-12 04:20:00,
2013-02-11 20:25:00,50.7,47.9,30.23,SW,224,0.0,1.0,90,0.00,,,0.00,0,Wunderground v.1.15,2013-02-12 04:25:00,
2013-02-11 20:35:00,50.8,48.3,30.23,SW,224,1.0,3.0,91,0.00,,,0.00,0,Wunderground v.1.15,2013-02-12 04:35:00,
2013-02-11 20:45:00,51.0,48.2,30.23,SW,225,2.0,2.0,90,0.00,,,0.00,0,Wunderground v.1.15,2013-02-12 04:45:00,
2013-02-11 20:50:00,51.0,48.2,30.24,SW,223,3.0,6.0,90,0.00,,,0.00,0,Wunderground v.1.15,2013-02-12 04:50:00,
2013-02-11 20:55:00,51.0,48.5,30.24,SW,235,5.0,8.0,91,0.00,,,0.00,0,Wunderground v.1.15,2013-02-12 04:55:00,
2013-02-11 21:00:00,50.9,48.4,30.24,WSW,253,5.0,8.0,91,0.00,,,0.00,0,Wunderground v.1.15,2013-02-12 05:00:00,
2013-02-11 21:05:00,50.9,48.4,30.24,WSW,241,5.0,8.0,91,0.00,,,0.00,0,Wunderground v.1.15,2013-02-12 05:05:00,
2013-02-11 21:15:00,50.6,48.1,30.24,SW,234,3.0,5.0,91,0.00,,,0.00,0,Wunderground v.1.15,2013-02-12 05:15:00,
2013-02-11 21:20:00,50.5,48.3,30.24,SW,226,3.0,6.0,92,0.00,,,0.00,0,Wunderground v.1.15,2013-02-12 05:20:00,
2013-02-11 21:30:00,50.4,48.2,30.25,SW,231,3.0,3.0,92,0.00,,,0.00,0,Wunderground v.1.15,2013-02-12 05:30:00,
2013-02-11 21:35:00,50.3,48.1,30.25,WSW,238,2.0,3.0,92,0.00,,,0.00,0,Wunderground v.1.15,2013-02-12 05:35:00,
2013-02-11 21:40:00,50.3,48.1,30.25,WSW,245,2.0,4.0,92,0.00,,,0.00,0,Wunderground v.1.15,2013-02-12 05:40:00,
2013-02-11 21:50:00,50.3,48.1,30.25,SSW,208,6.0,7.0,92,0.00,,,0.00,0,Wunderground v.1.15,2013-02-12 05:50:00,
2013-02-11 22:00:00,50.1,47.9,30.25,SW,227,7.0,7.0,92,0.00,,,0.00,0,Wunderground v.1.15,2013-02-12 06:00:00,
2013-02-11 22:05:00,50.0,47.8,30.25,WSW,242,7.0,8.0,92,0.00,,,0.00,0,Wunderground v.1.15,2013-02-12 06:05:00,
2013-02-11 22:15:00,50.0,47.8,30.25,SW,222,6.0,8.0,92,0.00,,,0.00,0,Wunderground v.1.15,2013-02-12 06:15:00,
2013-02-11 22:20:00,50.0,48.1,30.25,SW,224,6.0,6.0,93,0.00,,,0.00,0,Wunderground v.1.15,2013-02-12 06:20:00,
2013-02-11 22:30:00,49.8,47.9,30.25,West,259,5.0,7.0,93,0.00,,,0.00,0,Wunderground v.1.15,2013-02-12 06:30:00,
2013-02-11 22:35:00,49.7,47.8,30.25,SW,226,6.0,7.0,93,0.00,,,0.00,0,Wunderground v.1.15,2013-02-12 06:35:00,
2013-02-11 22:45:00,49.7,47.5,30.25,WSW,253,6.0,12.0,92,0.00,,,0.00,0,Wunderground v.1.15,2013-02-12 06:45:00,
2013-02-11 22:55:00,49.7,47.5,30.26,West,259,9.0,9.0,92,0.00,,,0.00,0,Wunderground v.1.15,2013-02-12 06:55:00,
2013-02-11 23:00:00,49.7,47.5,30.26,WSW,238,8.0,8.0,92,0.00,,,0.00,0,Wunderground v.1.15,2013-02-12 07:00:00,
2013-02-11 23:10:00,49.6,47.4,30.26,WSW,245,8.0,9.0,92,0.00,,,0.00,0,Wunderground v.1.15,2013-02-12 07:10:00,
2013-02-11 23:15:00,49.6,47.4,30.26,SSW,213,6.0,9.0,92,0.00,,,0.00,0,Wunderground v.1.15,2013-02-12 07:15:00,
2013-02-11 23:25:00,49.5,47.3,30.26,WSW,251,8.0,10.0,92,0.00,,,0.00,0,Wunderground v.1.15,2013-02-12 07:25:00,
2013-02-11 23:30:00,49.5,47.3,30.26,WSW,246,7.0,9.0,92,0.00,,,0.00,0,Wunderground v.1.15,2013-02-12 07:30:00,
2013-02-11 23:40:00,49.4,47.2,30.27,WSW,248,8.0,9.0,92,0.00,,,0.00,0,Wunderground v.1.15,2013-02-12 07:40:00,
2013-02-11 23:45:00,49.4,46.9,30.27,West,264,8.0,9.0,91,0.00,,,0.00,0,Wunderground v.1.15,2013-02-12 07:45:00,
2013-02-11 23:55:00,49.4,46.9,30.27,WSW,252,7.0,9.0,91,0.00,,,0.00,0,Wunderground v.1.15,2013-02-12 07:55:00,